This is the latest recevied weather packets stored in our database for station/object EA5JPW-10. If no packets are shown the sender has not sent any weather packets the latest 10 day(s).
| Time | Temp. | Humidity | Pressure | Rain* | Wind** | Luminosity | Snow |
|---|---|---|---|---|---|---|---|
| 1777589345 | 18.89° C | 44% | 996.5 hPa | - | - | - | - |
| 1777588445 | 18.89° C | 44% | 996.6 hPa | - | - | - | - |
| 1777587545 | 19.44° C | 44% | 996.5 hPa | - | - | - | - |
| 1777586645 | 19.44° C | 44% | 996.7 hPa | - | - | - | - |
| 1777585745 | 19.44° C | 44% | 996.7 hPa | - | - | - | - |
| 1777584844 | 19.44° C | 44% | 996.7 hPa | - | - | - | - |
| 1777583944 | 19.44° C | 44% | 996.6 hPa | - | - | - | - |
| 1777583044 | 19.44° C | 44% | 996.4 hPa | - | - | - | - |
| 1777582144 | 19.44° C | 44% | 996.1 hPa | - | - | - | - |
| 1777581244 | 19.44° C | 44% | 995.9 hPa | - | - | - | - |
| 1777580343 | 20° C | 44% | 995.5 hPa | - | - | - | - |
| 1777579443 | 20° C | 44% | 995.1 hPa | - | - | - | - |
| 1777578547 | 20.56° C | 44% | 994.9 hPa | - | - | - | - |
| 1777577647 | 20.56° C | 43% | 994.6 hPa | - | - | - | - |
| 1777576747 | 21.11° C | 43% | 994.3 hPa | - | - | - | - |
| 1777575847 | 21.11° C | 43% | 994.3 hPa | - | - | - | - |
| 1777574947 | 21.67° C | 43% | 994.2 hPa | - | - | - | - |
| 1777574046 | 22.22° C | 43% | 993.9 hPa | - | - | - | - |
| 1777573146 | 22.78° C | 43% | 993.7 hPa | - | - | - | - |
| 1777572246 | 23.89° C | 42% | 993.5 hPa | - | - | - | - |
| 1777571346 | 23.89° C | 43% | 993.6 hPa | - | - | - | - |
| 1777570446 | 24.44° C | 41% | 993.2 hPa | - | - | - | - |
| 1777569545 | 28.33° C | 38% | 993 hPa | - | - | - | - |
| 1777568645 | 30° C | 36% | 993.2 hPa | - | - | - | - |
| 1777567745 | 31.11° C | 35% | 993.6 hPa | - | - | - | - |
* Rain since midnight (hover to see other rain measurements)
** Current wind speed in m/s (hover to see current wind gust speed)